CW6538 Cattolica IT current weather conditions

sailwx.info

Wind from 273 at 5 knots gusting 13

Air temperature 2.2° C
Dewpoint -3.7° C

Last reported at 2017-Jan-20 06:53 UTC.
Time now 2017-Jan-20 07:47 UTC

Location: N 43°58' E 012°44'.
View on Google Maps.

See reports from other nearby stations

  
Tides and Currents Weather Stations Pressure Air Temp Water Temp Dewpoint Dewpoint Depression Visibility Wind Speed Wind Dir Waves Ship Positions
date/time (UTC)wind fromknots sea level pressurealtimeterstation pressurevisibilityair tempwater tempwave heightnotes
2017-Jan-20 06:53 273 5 gusting 13 2.2
2017-Jan-20 06:49 301 6 gusting 12 2.2
2017-Jan-20 06:43 306 7 gusting 13 2.2
2017-Jan-20 06:39 289 6 gusting 13 2.2
2017-Jan-20 06:34 282 7 gusting 13 2.2
2017-Jan-20 06:28 326 6 gusting 13 2.2
2017-Jan-20 06:24 299 6 gusting 13 2.2
2017-Jan-20 06:19 321 6 gusting 15 2.2
2017-Jan-20 06:13 297 8 gusting 13 2.2
2017-Jan-20 06:09 317 6 gusting 13 2.2
2017-Jan-20 06:04 343 8 gusting 13 2.2
2017-Jan-20 05:59 281 6 gusting 12 2.2
2017-Jan-20 05:53 288 4 gusting 12 2.2
2017-Jan-20 05:49 291 4 gusting 10 2.2
2017-Jan-20 05:43 281 5 gusting 13 2.2
2017-Jan-20 05:39 306 6 gusting 13 2.2
2017-Jan-20 05:33 286 5 gusting 13 2.2
2017-Jan-20 05:29 267 6 gusting 13 2.2
2017-Jan-20 05:24 305 8 gusting 13 2.2
2017-Jan-20 05:18 295 7 gusting 13 2.2
2017-Jan-20 05:14 288 4 gusting 13 2.2
2017-Jan-20 05:08 310 6 gusting 13 2.8
2017-Jan-20 05:04 323 9 gusting 13 2.8
2017-Jan-20 04:58 300 7 gusting 13 2.8
2017-Jan-20 04:54 301 7 gusting 11 2.8
2017-Jan-20 04:43 311 6 gusting 11 2.8
2017-Jan-20 04:38 298 6 gusting 13 2.8
2017-Jan-20 04:34 300 4 gusting 13 2.8
2017-Jan-20 04:28 279 7 gusting 12 2.8
2017-Jan-20 04:24 338 6 gusting 12 3.3
2017-Jan-20 04:19 303 5 gusting 11 3.3
2017-Jan-20 04:13 299 6 gusting 11 3.3
2017-Jan-20 04:08 305 3 gusting 8 3.3
2017-Jan-20 04:04 331 1 gusting 8 2.8
2017-Jan-20 03:59 309 4 gusting 10 2.8
2017-Jan-20 03:53 292 5 gusting 8 2.8
2017-Jan-20 03:49 294 5 gusting 11 2.8
2017-Jan-20 03:43 329 6 gusting 11 2.8
2017-Jan-20 03:39 323 2 gusting 9 2.8
2017-Jan-20 03:34 292 6 gusting 11 2.8
2017-Jan-20 03:28 302 6 gusting 11 2.8
2017-Jan-20 03:24 265 4 gusting 11 2.8
2017-Jan-20 03:18 279 6 gusting 12 2.8
2017-Jan-20 03:14 284 4 gusting 12 2.8
2017-Jan-20 03:09 275 4 gusting 8 2.8
2017-Jan-20 03:04 336 5 gusting 11 2.8
2017-Jan-20 02:58 282 3 gusting 12 2.8
2017-Jan-20 02:53 268 6 gusting 12 2.8
2017-Jan-20 02:49 304 5 gusting 11 2.8
2017-Jan-20 02:43 307 5 gusting 9 2.8
2017-Jan-20 02:38 276 6 gusting 10 2.8
2017-Jan-20 02:33 317 7 gusting 11 2.8
2017-Jan-20 02:28 296 7 gusting 12 2.8
2017-Jan-20 02:23 293 8 gusting 13 2.8
2017-Jan-20 02:19 284 5 gusting 13 2.8
2017-Jan-20 02:08 303 5 gusting 12 3.3
2017-Jan-20 02:03 298 7 gusting 12 3.3
2017-Jan-20 01:59 307 6 gusting 12 3.3
2017-Jan-20 01:53 300 7 gusting 12 3.3
2017-Jan-20 01:49 279 5 gusting 13 3.3
2017-Jan-20 01:44 309 6 gusting 11 3.3
2017-Jan-20 01:38 303 6 gusting 13 3.3
2017-Jan-20 01:34 288 6 gusting 13 3.3
2017-Jan-20 01:29 325 7 gusting 13 3.3
2017-Jan-20 01:24 279 6 gusting 12 3.3
2017-Jan-20 01:18 296 6 gusting 12 3.3
2017-Jan-20 01:14 318 7 gusting 11 3.3
2017-Jan-20 01:08 299 6 gusting 12 3.3
2017-Jan-20 01:04 301 8 gusting 13 3.3
2017-Jan-20 00:58 295 6 gusting 13 3.3
2017-Jan-20 00:53 304 5 gusting 11 3.3
2017-Jan-20 00:49 334 4 gusting 11 3.3
2017-Jan-20 00:43 316 5 gusting 10 2.8
2017-Jan-20 00:39 302 6 gusting 10 2.8
2017-Jan-20 00:33 282 2 gusting 10 2.8
2017-Jan-20 00:29 275 6 gusting 10 2.8
2017-Jan-20 00:23 267 6 gusting 10 3.3
2017-Jan-20 00:19 275 6 gusting 10 3.3
2017-Jan-20 00:13 279 5 gusting 9 3.3
2017-Jan-20 00:09 292 5 gusting 10 3.3
2017-Jan-20 00:04 286 5 gusting 10 3.3
2017-Jan-19 23:58 316 5 gusting 10 2.8
2017-Jan-19 23:54 305 4 gusting 10 2.8
2017-Jan-19 23:49 276 6 gusting 10 2.8
2017-Jan-19 23:43 300 5 gusting 10 2.8
2017-Jan-19 23:39 289 4 gusting 8 2.8
2017-Jan-19 23:33 281 4 gusting 7 2.8
2017-Jan-19 23:29 294 1 gusting 6 2.8
2017-Jan-19 23:23 279 3 gusting 9 2.8
2017-Jan-19 23:19 273 4 gusting 8 2.8
2017-Jan-19 23:13 280 5 gusting 8 2.8
2017-Jan-19 23:09 247 4 gusting 8 2.8
2017-Jan-19 23:03 295 5 gusting 11 2.8
2017-Jan-19 22:59 310 6 gusting 11 3.3
2017-Jan-19 22:54 276 5 gusting 7 3.3
2017-Jan-19 22:48 294 3 gusting 8 3.3
2017-Jan-19 22:43 295 3 gusting 8 3.3
2017-Jan-19 22:39 281 2 gusting 7 3.3
2017-Jan-19 22:34 265 4 gusting 7 3.3
2017-Jan-19 22:29 259 4 gusting 6 3.3
2017-Jan-19 22:23 268 2 gusting 9 3.9
2017-Jan-19 22:19 281 4 gusting 9 3.9
2017-Jan-19 22:13 277 3 gusting 11 3.9
2017-Jan-19 22:09 283 6 gusting 12 3.9
2017-Jan-19 22:03 290 6 gusting 12 4.4
2017-Jan-19 21:59 297 6 gusting 11 5.0
2017-Jan-19 21:53 300 7 gusting 13 5.0
2017-Jan-19 21:48 036 6 gusting 13 5.0
2017-Jan-19 21:44 355 6 gusting 13 5.0
2017-Jan-19 21:39 037 8 gusting 13 5.0
2017-Jan-19 21:33 038 6 gusting 13 5.0
2017-Jan-19 21:29 355 7 gusting 13 5.0
2017-Jan-19 21:23 005 6 gusting 15 5.6
2017-Jan-19 21:19 055 6 gusting 15 5.6
2017-Jan-19 21:14 346 9 gusting 18 5.6
2017-Jan-19 21:08 321 6 gusting 18 5.6
2017-Jan-19 21:03 355 5 gusting 13 5.6
2017-Jan-19 20:59 015 8 gusting 18 5.6
2017-Jan-19 20:54 005 8 gusting 18 5.6
2017-Jan-19 20:49 020 9 gusting 17 5.6
2017-Jan-19 20:43 015 11 gusting 19 5.6
2017-Jan-19 20:38 022 11 gusting 19 5.6
2017-Jan-19 20:33 005 9 gusting 15 5.6
2017-Jan-19 20:28 355 9 gusting 16 5.6
2017-Jan-19 20:24 009 10 gusting 16 5.6
2017-Jan-19 20:19 360 10 gusting 15 5.6
2017-Jan-19 20:13 010 10 gusting 15 5.6
2017-Jan-19 20:09 005 8 gusting 15 5.6
2017-Jan-19 20:04 036 8 gusting 16 5.6
2017-Jan-19 19:59 005 10 gusting 16 5.6
2017-Jan-19 19:53 005 10 gusting 19 5.6
2017-Jan-19 19:48 025 13 gusting 18 5.6
2017-Jan-19 19:44 345 11 gusting 18 6.1
2017-Jan-19 19:39 355 8 gusting 16 6.1
2017-Jan-19 19:33 020 6 gusting 15 6.1
2017-Jan-19 19:29 016 8 gusting 13 6.1
2017-Jan-19 19:24 355 7 gusting 13 6.1
2017-Jan-19 19:18 005 7 gusting 13 5.6
2017-Jan-19 19:14 042 7 gusting 13 6.1
2017-Jan-19 19:09 005 8 gusting 13 6.1
2017-Jan-19 19:04 348 8 gusting 13 6.1
2017-Jan-19 18:58 015 7 gusting 17 6.1
2017-Jan-19 18:54 005 11 gusting 17 6.1
2017-Jan-19 18:48 355 8 gusting 16 6.1
2017-Jan-19 18:44 005 5 gusting 16 6.1
2017-Jan-19 18:38 044 8 gusting 15 6.1
2017-Jan-19 18:33 355 6 gusting 13 6.1
2017-Jan-19 18:28 011 7 gusting 13 6.1
2017-Jan-19 18:24 041 6 gusting 13 6.1
2017-Jan-19 18:19 019 6 gusting 16 6.1
2017-Jan-19 18:13 360 9 gusting 16 6.1
2017-Jan-19 18:08 040 7 gusting 13 6.1
2017-Jan-19 18:04 050 7 gusting 13 6.1
2017-Jan-19 17:59 360 6 gusting 13 6.1
2017-Jan-19 17:53 017 7 gusting 12 6.1
2017-Jan-19 17:48 022 5 gusting 12 6.1
2017-Jan-19 17:44 019 8 gusting 12 6.1
2017-Jan-19 17:39 355 6 gusting 11 6.1
2017-Jan-19 17:33 360 6 gusting 16 6.1
2017-Jan-19 17:29 009 10 gusting 16 6.1
2017-Jan-19 17:24 017 7 gusting 13 6.1
2017-Jan-19 17:19 074 8 gusting 13 6.1
2017-Jan-19 17:13 038 5 gusting 13 6.1
2017-Jan-19 17:09 014 7 gusting 16 6.1
2017-Jan-19 17:04 024 8 gusting 16 6.7
2017-Jan-19 16:58 061 8 gusting 16 6.7
2017-Jan-19 16:53 034 10 gusting 16 6.7
2017-Jan-19 16:49 049 7 gusting 16 6.7
2017-Jan-19 16:43 031 6 gusting 15 6.7
2017-Jan-19 16:38 024 7 gusting 16 6.7
2017-Jan-19 16:34 065 9 gusting 16 6.7
2017-Jan-19 16:28 355 9 gusting 16 7.2
2017-Jan-19 16:24 045 7 gusting 16 6.7
2017-Jan-19 16:19 056 7 gusting 16 6.7
2017-Jan-19 16:13 027 4 gusting 10 6.7
2017-Jan-19 16:09 041 5 gusting 9 6.7
2017-Jan-19 16:03 030 5 gusting 9 6.7
2017-Jan-19 15:59 013 6 gusting 12 6.7
2017-Jan-19 15:53 005 6 gusting 12 6.7
2017-Jan-19 15:49 355 6 gusting 10 6.7
2017-Jan-19 15:43 044 5 gusting 9 7.2
2017-Jan-19 15:39 029 3 gusting 9 7.2
2017-Jan-19 15:33 039 6 gusting 11 7.2
2017-Jan-19 15:29 355 7 gusting 11 7.2
2017-Jan-19 15:24 040 6 gusting 11 7.2
2017-Jan-19 15:18 005 6 gusting 13 7.2
2017-Jan-19 15:14 060 7 gusting 13 7.2
2017-Jan-19 15:08 038 6 gusting 13 7.2
2017-Jan-19 15:03 024 6 gusting 12 7.2
2017-Jan-19 14:59 005 6 gusting 13 7.2
2017-Jan-19 14:53 346 6 gusting 13 7.2
2017-Jan-19 14:48 066 6 gusting 13 7.2
2017-Jan-19 14:44 039 7 gusting 13 7.2
2017-Jan-19 14:38 032 6 gusting 13 7.2
2017-Jan-19 14:34 005 6 gusting 13 7.2
2017-Jan-19 14:29 024 6 gusting 13 7.8
2017-Jan-19 14:23 027 7 gusting 13 7.8
2017-Jan-19 14:19 034 9 gusting 13 7.8
2017-Jan-19 14:14 032 6 gusting 12 7.8
2017-Jan-19 14:09 041 6 gusting 12 7.8
2017-Jan-19 14:03 005 6 gusting 12 7.8
2017-Jan-19 13:59 051 6 gusting 11 7.8
2017-Jan-19 13:54 030 5 gusting 11 7.8
2017-Jan-19 13:48 052 6 gusting 11 7.8
2017-Jan-19 13:44 027 6 gusting 11 7.8
2017-Jan-19 13:38 026 4 gusting 10 7.8
2017-Jan-19 13:33 024 3 gusting 9 7.8
2017-Jan-19 13:29 068 3 gusting 9 7.8
2017-Jan-19 13:23 059 5 gusting 8 7.8
2017-Jan-19 13:19 351 4 gusting 10 7.8
2017-Jan-19 13:14 034 6 gusting 10 7.8
2017-Jan-19 13:08 051 5 gusting 10 7.8
2017-Jan-19 13:04 036 6 gusting 10 7.8
2017-Jan-19 12:58 087 5 gusting 10 7.8
2017-Jan-19 12:54 015 6 gusting 10 7.8
2017-Jan-19 12:48 005 6 gusting 9 7.8
2017-Jan-19 12:43 013 5 gusting 8 7.8
2017-Jan-19 12:38 043 4 gusting 10 7.8
2017-Jan-19 12:33 021 6 gusting 13 7.2
2017-Jan-19 12:29 012 5 gusting 13 7.2
2017-Jan-19 12:23 042 6 gusting 13 7.2
2017-Jan-19 12:18 028 7 gusting 15 7.2
2017-Jan-19 12:14 360 7 gusting 12 7.2
2017-Jan-19 12:08 017 7 gusting 12 7.2
2017-Jan-19 12:03 051 5 gusting 11 7.2
2017-Jan-19 11:59 041 6 gusting 12 7.2
2017-Jan-19 11:53 350 6 gusting 13 7.2
2017-Jan-19 11:49 360 6 gusting 13 7.2
2017-Jan-19 11:43 028 6 gusting 11 7.2
2017-Jan-19 11:39 013 6 gusting 13 7.2
2017-Jan-19 11:33 017 7 gusting 13 7.2
2017-Jan-19 11:28 050 4 gusting 12 7.2
2017-Jan-19 11:24 040 7 gusting 12 7.2
2017-Jan-19 11:18 013 5 gusting 12 7.2
2017-Jan-19 11:14 030 6 gusting 12 7.2
2017-Jan-19 11:09 092 4 gusting 13 7.2
2017-Jan-19 11:03 034 5 gusting 13 7.2
2017-Jan-19 10:59 345 6 gusting 13 7.2
2017-Jan-19 10:49 005 6 gusting 13 7.2
2017-Jan-19 10:44 019 7 gusting 13 7.2
2017-Jan-19 10:38 021 7 gusting 13 7.2
2017-Jan-19 10:34 063 7 gusting 13 7.2
2017-Jan-19 10:29 038 7 gusting 13 7.2
2017-Jan-19 10:23 041 6 gusting 13 7.2
2017-Jan-19 10:18 038 6 gusting 13 7.2
2017-Jan-19 10:13 036 6 gusting 13 7.2
2017-Jan-19 10:09 047 7 gusting 12 7.2
2017-Jan-19 10:03 348 6 gusting 13 7.2
2017-Jan-19 09:58 011 6 gusting 10 7.2
2017-Jan-19 09:53 067 6 gusting 10 6.7
2017-Jan-19 09:49 067 6 gusting 10 6.7
2017-Jan-19 09:43 343 6 gusting 16 6.7
2017-Jan-19 09:39 034 8 gusting 16 6.7
2017-Jan-19 09:34 009 5 gusting 16 6.7
2017-Jan-19 09:29 360 7 gusting 16 6.7
2017-Jan-19 09:24 019 6 gusting 16 6.7
2017-Jan-19 09:19 033 7 gusting 16 6.7
2017-Jan-19 09:13 019 8 gusting 19 6.7
2017-Jan-19 09:08 046 8 gusting 19 6.7
2017-Jan-19 09:04 053 8 gusting 16 6.7
2017-Jan-19 08:59 012 9 gusting 17 6.7
2017-Jan-19 08:53 036 9 gusting 17 6.1
2017-Jan-19 08:49 017 10 gusting 18 6.1
2017-Jan-19 08:43 005 10 gusting 18 6.1
2017-Jan-19 08:38 005 10 gusting 19 6.1
2017-Jan-19 08:33 032 11 gusting 19 6.1
2017-Jan-19 08:28 355 9 gusting 17 6.1
2017-Jan-19 08:23 019 8 gusting 19 6.1
2017-Jan-19 08:19 057 8 gusting 18 6.1
2017-Jan-19 08:13 032 9 gusting 21 6.1
2017-Jan-19 08:09 030 10 gusting 18 6.1
2017-Jan-19 08:03 010 11 gusting 18 6.1
2017-Jan-19 07:58 047 9 gusting 22 6.1
2017-Jan-19 07:53 033 9 gusting 22 6.1
2017-Jan-19 07:49 360 13 gusting 20 6.1
2017-Jan-19 07:44 022 13 gusting 24 6.1
2017-Jan-19 07:38 032 13 gusting 24 6.1
2017-Jan-19 07:34 040 12 gusting 22 6.1
2017-Jan-19 07:28 024 12 gusting 22 6.1
2017-Jan-19 07:23 017 10 gusting 19 6.1
2017-Jan-19 07:19 023 10 gusting 20 6.1
2017-Jan-19 07:13 022 9 gusting 21 6.1
2017-Jan-19 07:09 355 12 gusting 21 6.1
2017-Jan-19 07:04 032 12 gusting 19 6.1
2017-Jan-19 06:59 355 10 gusting 19 6.1
2017-Jan-19 06:53 057 10 gusting 22 6.1
2017-Jan-19 06:49 074 10 gusting 22 6.1
2017-Jan-19 06:43 040 12 gusting 20 6.1
2017-Jan-19 06:39 027 10 gusting 19 6.1
2017-Jan-19 06:33 017 8 gusting 21 6.1
2017-Jan-19 06:29 016 11 gusting 21 6.1
2017-Jan-19 06:23 031 12 gusting 25 6.1
2017-Jan-19 06:19 034 9 gusting 25 6.1
2017-Jan-19 06:13 030 9 gusting 20 6.1
2017-Jan-19 06:09 036 9 gusting 19 6.1
2017-Jan-19 06:03 036 12 gusting 21 6.1
2017-Jan-19 05:59 028 10 gusting 21 5.6
2017-Jan-19 05:53 005 10 gusting 20 5.6
2017-Jan-19 05:49 036 10 gusting 24 5.6
2017-Jan-19 05:43 360 13 gusting 24 5.6
2017-Jan-19 05:39 348 13 gusting 24 5.6
2017-Jan-19 05:33 005 13 gusting 24 5.6
2017-Jan-19 05:29 044 15 gusting 23 5.6
2017-Jan-19 05:23 012 9 gusting 24 5.6
2017-Jan-19 05:19 017 14 gusting 23 5.6
2017-Jan-19 05:13 349 13 gusting 24 5.6
2017-Jan-19 05:09 026 12 gusting 24 5.6
2017-Jan-19 05:03 019 12 gusting 24 5.6
2017-Jan-19 04:59 009 13 gusting 23 5.6
2017-Jan-19 04:53 028 13 gusting 26 5.6
2017-Jan-19 04:49 018 13 gusting 26 5.6
2017-Jan-19 04:43 024 12 gusting 25 5.6
2017-Jan-19 04:38 351 14 gusting 25 5.6
2017-Jan-19 04:34 020 16 gusting 24 5.6
2017-Jan-19 04:28 038 11 gusting 21 5.6
2017-Jan-19 04:24 360 12 gusting 21 5.6
2017-Jan-19 04:18 360 13 gusting 22 5.6
2017-Jan-19 04:14 032 13 gusting 26 5.6
2017-Jan-19 04:09 015 15 gusting 26 5.6
2017-Jan-19 04:03 005 15 gusting 26 6.1
2017-Jan-19 03:59 005 16 gusting 28 6.1
2017-Jan-19 03:53 005 13 gusting 21 6.1
2017-Jan-19 03:48 355 11 gusting 20 6.1
2017-Jan-19 03:44 068 9 gusting 20 6.1
2017-Jan-19 03:38 023 13 gusting 20 6.1
2017-Jan-19 03:33 063 11 gusting 21 6.1
2017-Jan-19 03:29 050 10 gusting 19 6.1
2017-Jan-19 03:23 042 9 gusting 21 6.1
2017-Jan-19 03:19 348 11 gusting 21 6.1
2017-Jan-19 03:13 023 8 gusting 22 6.1
2017-Jan-19 03:09 009 8 gusting 22 6.1
2017-Jan-19 03:03 018 9 gusting 19 6.1
2017-Jan-19 02:58 005 13 gusting 19 6.1
2017-Jan-19 02:54 040 12 gusting 19 6.1
2017-Jan-19 02:48 019 9 gusting 21 6.1
2017-Jan-19 02:44 032 9 gusting 21 6.1
2017-Jan-19 02:38 042 12 gusting 20 6.1
2017-Jan-19 02:34 039 13 gusting 22 6.1
2017-Jan-19 02:28 061 11 gusting 22 6.1
2017-Jan-19 02:23 005 12 gusting 19 6.1
2017-Jan-19 02:19 360 8 gusting 19 6.1
2017-Jan-19 02:14 015 7 gusting 18 6.1
2017-Jan-19 02:08 047 7 gusting 19 6.1
2017-Jan-19 02:04 024 11 gusting 21 6.1
2017-Jan-19 01:58 025 9 gusting 23 6.1
2017-Jan-19 01:54 019 12 gusting 19 6.1
2017-Jan-19 01:48 360 10 gusting 19 6.1
2017-Jan-19 01:44 025 11 gusting 19 6.1
2017-Jan-19 01:38 030 10 gusting 18 6.1
2017-Jan-19 01:34 005 8 gusting 17 6.1
2017-Jan-19 01:28 009 10 gusting 17 6.1
2017-Jan-19 01:24 061 8 gusting 23 6.1
2017-Jan-19 01:18 355 12 gusting 23 6.1
2017-Jan-19 01:14 005 12 gusting 22 6.1
2017-Jan-19 01:08 065 8 gusting 20 5.6
2017-Jan-19 01:04 068 13 gusting 22 5.6
2017-Jan-19 00:58 052 12 gusting 23 5.6
2017-Jan-19 00:53 340 12 gusting 26 6.1
2017-Jan-19 00:48 005 12 gusting 26 6.1
2017-Jan-19 00:44 067 10 gusting 23 6.1
2017-Jan-19 00:38 040 13 gusting 22 6.1
2017-Jan-19 00:34 037 9 gusting 22 6.1
2017-Jan-19 00:28 013 9 gusting 22 6.1
2017-Jan-19 00:24 051 13 gusting 21 6.1
2017-Jan-19 00:18 067 12 gusting 22 6.1
2017-Jan-19 00:14 016 13 gusting 21 6.1
2017-Jan-19 00:08 060 9 gusting 23 6.1
2017-Jan-19 00:03 005 13 gusting 23 6.1
2017-Jan-18 23:59 018 10 gusting 20 6.1
2017-Jan-18 23:53 021 12 gusting 20 6.1
2017-Jan-18 23:49 360 11 gusting 19 6.1
2017-Jan-18 23:44 348 8 gusting 22 5.6
2017-Jan-18 23:33 025 13 gusting 22 5.6
2017-Jan-18 23:28 067 10 gusting 20 5.6
2017-Jan-18 23:23 031 10 gusting 20 6.1
2017-Jan-18 23:19 038 11 gusting 21 6.1
2017-Jan-18 23:08 049 14 gusting 23 6.1
2017-Jan-18 23:03 037 10 gusting 23 6.1
2017-Jan-18 22:59 055 13 gusting 21 6.1
2017-Jan-18 22:53 070 13 gusting 21 6.1
2017-Jan-18 22:49 033 8 gusting 19 6.1
2017-Jan-18 22:44 059 9 gusting 19 5.6
2017-Jan-18 22:39 067 10 gusting 21 5.6
2017-Jan-18 22:34 030 12 gusting 25 6.1
2017-Jan-18 22:29 063 15 gusting 25 6.1
2017-Jan-18 22:24 005 10 gusting 25 6.1
2017-Jan-18 22:19 015 13 gusting 21 6.1
2017-Jan-18 22:14 073 13 gusting 21 6.1
2017-Jan-18 22:09 016 9 gusting 21 6.1
2017-Jan-18 22:03 044 13 gusting 21 5.6
2017-Jan-18 21:53 027 13 gusting 21 6.1
2017-Jan-18 21:49 051 12 gusting 21 6.1
2017-Jan-18 21:43 065 13 gusting 21 6.1
2017-Jan-18 21:39 010 12 gusting 21 6.1
2017-Jan-18 21:34 023 12 gusting 21 6.1
2017-Jan-18 21:28 056 10 gusting 21 6.1
2017-Jan-18 21:23 025 11 gusting 21 6.1
2017-Jan-18 21:19 058 10 gusting 20 6.1
2017-Jan-18 21:13 056 11 gusting 20 6.1
2017-Jan-18 21:04 041 13 gusting 21 6.1
2017-Jan-18 20:58 057 8 gusting 22 6.1
2017-Jan-18 20:53 034 11 gusting 22 6.1
2017-Jan-18 20:48 064 14 gusting 22 6.1
2017-Jan-18 20:44 069 12 gusting 22 6.1
2017-Jan-18 20:38 053 9 gusting 22 6.1
2017-Jan-18 20:33 092 12 gusting 22 6.1
2017-Jan-18 20:29 021 13 gusting 22 6.1
2017-Jan-18 20:24 028 15 gusting 22 6.1
2017-Jan-18 20:19 044 11 gusting 22 6.1
2017-Jan-18 20:14 026 11 gusting 22 6.1
2017-Jan-18 20:09 076 13 gusting 22 6.1
2017-Jan-18 20:03 077 9 gusting 26 6.1
2017-Jan-18 19:58 039 13 gusting 26 6.1
2017-Jan-18 19:54 035 13 gusting 23 6.1
2017-Jan-18 19:49 074 13 gusting 20 6.1
2017-Jan-18 19:39 038 13 gusting 23 6.1
2017-Jan-18 19:34 043 14 gusting 25 6.1
2017-Jan-18 19:28 064 13 gusting 26 6.1
2017-Jan-18 19:23 014 14 gusting 26 6.1
2017-Jan-18 19:18 044 15 gusting 26 6.1
2017-Jan-18 19:14 061 13 gusting 23 6.1
2017-Jan-18 19:09 041 13 gusting 25 6.1
2017-Jan-18 19:04 022 15 gusting 25 6.1
2017-Jan-18 18:58 013 14 gusting 25 6.1
2017-Jan-18 18:54 046 13 gusting 25 6.1
2017-Jan-18 18:48 038 14 gusting 22 6.1
2017-Jan-18 18:44 011 14 gusting 26 6.1
2017-Jan-18 18:38 050 16 gusting 26 6.1
2017-Jan-18 18:34 040 13 gusting 26 6.1
2017-Jan-18 18:28 017 15 gusting 27 6.1
2017-Jan-18 18:24 051 17 gusting 27 6.1
2017-Jan-18 18:19 042 15 gusting 25 6.1
2017-Jan-18 18:13 059 13 gusting 26 6.1
2017-Jan-18 18:09 046 15 gusting 26 6.1
2017-Jan-18 18:04 062 13 gusting 24 6.1
2017-Jan-18 17:53 024 9 gusting 25 6.1
2017-Jan-18 17:44 046 14 gusting 23 6.1
2017-Jan-18 17:39 029 13 gusting 23 6.1
2017-Jan-18 17:34 019 14 gusting 23 6.1
2017-Jan-18 17:29 056 14 gusting 23 6.1
2017-Jan-18 17:19 061 14 gusting 21 6.1
2017-Jan-18 17:13 036 13 gusting 22 6.1
2017-Jan-18 17:08 025 13 gusting 22 6.1
2017-Jan-18 17:04 042 8 gusting 21 6.1
2017-Jan-18 16:59 044 12 gusting 25 6.1
2017-Jan-18 16:49 054 15 gusting 25 6.1
2017-Jan-18 16:43 071 12 gusting 27 6.1
2017-Jan-18 16:38 022 15 gusting 27 6.1
2017-Jan-18 16:33 065 14 gusting 24 6.1
2017-Jan-18 16:28 060 12 gusting 24 6.1
2017-Jan-18 16:23 035 15 gusting 25 6.1
2017-Jan-18 16:13 055 15 gusting 24 6.1
2017-Jan-18 16:04 044 15 gusting 26 6.1
2017-Jan-18 15:58 045 13 gusting 26 6.1
2017-Jan-18 15:48 046 14 gusting 26 6.7
2017-Jan-18 15:44 060 14 gusting 27 6.7
2017-Jan-18 15:33 053 14 gusting 28 6.7
2017-Jan-18 15:29 019 15 gusting 26 6.7
2017-Jan-18 15:23 035 15 gusting 26 6.7
2017-Jan-18 15:14 005 15 gusting 26 6.7
2017-Jan-18 15:04 042 14 gusting 26 6.7
2017-Jan-18 14:59 063 13 gusting 24 6.7
2017-Jan-18 14:54 031 13 gusting 26 6.7
2017-Jan-18 14:49 053 15 gusting 26 6.7
2017-Jan-18 14:44 055 14 gusting 25 6.7
2017-Jan-18 14:39 024 12 gusting 25 6.7
2017-Jan-18 14:33 027 11 gusting 25 6.7
2017-Jan-18 14:28 050 13 gusting 25 6.7
2017-Jan-18 14:23 053 12 gusting 26 6.7
2017-Jan-18 14:19 063 14 gusting 26 6.7
2017-Jan-18 14:14 045 14 gusting 26 6.7
2017-Jan-18 14:09 045 14 gusting 26 6.7
2017-Jan-18 14:03 062 15 gusting 24 6.7
2017-Jan-18 13:59 042 12 gusting 26 6.7
2017-Jan-18 13:53 046 14 gusting 31 6.7
2017-Jan-18 13:48 031 17 gusting 31 6.7
2017-Jan-18 13:43 041 15 gusting 27 6.7
2017-Jan-18 13:38 080 13 gusting 26 6.7
2017-Jan-18 13:34 360 13 gusting 25 6.7
2017-Jan-18 13:29 034 14 gusting 25 6.7
2017-Jan-18 13:23 063 13 gusting 28 6.7
2017-Jan-18 13:19 051 14 gusting 27 6.7
2017-Jan-18 13:13 054 12 gusting 22 6.7
2017-Jan-18 13:09 046 12 gusting 27 6.7
2017-Jan-18 13:04 028 11 gusting 27 6.7
2017-Jan-18 12:59 056 14 gusting 24 6.7
2017-Jan-18 12:54 055 13 gusting 22 6.7
2017-Jan-18 12:49 018 15 gusting 22 6.7
2017-Jan-18 12:44 047 12 gusting 23 6.7
2017-Jan-18 12:39 053 15 gusting 24 6.7
2017-Jan-18 12:33 026 11 gusting 25 6.7
2017-Jan-18 12:28 077 13 gusting 25 6.7
2017-Jan-18 12:24 036 14 gusting 25 6.7
2017-Jan-18 12:18 017 12 gusting 22 6.7
2017-Jan-18 12:14 039 13 gusting 26 6.7
2017-Jan-18 12:08 355 13 gusting 29 6.1
2017-Jan-18 12:04 024 17 gusting 30 6.7
2017-Jan-18 11:58 025 16 gusting 30 6.7
2017-Jan-18 11:53 063 14 gusting 25 6.7
2017-Jan-18 11:49 343 11 gusting 24 6.7
2017-Jan-18 11:43 056 17 gusting 25 6.7
2017-Jan-18 11:39 062 13 gusting 25 6.1
2017-Jan-18 11:33 033 12 gusting 24 6.1
2017-Jan-18 11:29 034 12 gusting 27 6.1
2017-Jan-18 11:23 014 16 gusting 27 6.1
2017-Jan-18 11:18 035 15 gusting 25 6.1
2017-Jan-18 11:14 059 12 gusting 26 6.1
2017-Jan-18 11:08 033 15 gusting 26 6.1
2017-Jan-18 11:03 042 14 gusting 28 6.1
2017-Jan-18 10:59 360 15 gusting 28 6.1
2017-Jan-18 10:54 009 13 gusting 26 6.1
2017-Jan-18 10:48 061 17 gusting 26 6.1
2017-Jan-18 10:44 036 13 gusting 24 6.1
2017-Jan-18 10:38 046 12 gusting 24 6.1
2017-Jan-18 10:33 031 13 gusting 26 6.1
2017-Jan-18 10:28 015 16 gusting 27 6.1
2017-Jan-18 10:24 027 14 gusting 28 6.1
2017-Jan-18 10:19 036 12 gusting 29 6.1
2017-Jan-18 10:13 032 18 gusting 29 5.6
2017-Jan-18 10:09 047 13 gusting 29 5.6
2017-Jan-18 10:04 030 14 gusting 29 5.6
2017-Jan-18 09:58 044 17 gusting 25 5.6
2017-Jan-18 09:53 030 14 gusting 25 6.1
2017-Jan-18 09:48 005 13 gusting 26 6.1
2017-Jan-18 09:44 053 17 gusting 26 6.1
2017-Jan-18 09:38 052 13 gusting 26 6.1
2017-Jan-18 09:33 040 14 gusting 26 6.1
2017-Jan-18 09:29 032 17 gusting 27 6.1
2017-Jan-18 09:24 037 16 gusting 26 6.1
2017-Jan-18 09:18 051 18 gusting 27 6.1
2017-Jan-18 09:14 032 13 gusting 27 6.1
2017-Jan-18 09:08 044 12 gusting 29 6.1
2017-Jan-18 09:03 020 16 gusting 29 6.1
2017-Jan-18 08:58 029 17 gusting 29 5.6
2017-Jan-18 08:53 025 15 gusting 28 6.1
2017-Jan-18 08:49 038 15 gusting 24 6.1
2017-Jan-18 08:44 048 16 gusting 29 6.1
2017-Jan-18 08:38 010 15 gusting 29 5.6
2017-Jan-18 08:34 033 13 gusting 29 5.6
2017-Jan-18 08:28 057 15 gusting 31 5.6
2017-Jan-18 08:24 030 19 gusting 31 5.6
2017-Jan-18 08:18 059 13 gusting 26 5.6
2017-Jan-18 08:13 027 13 gusting 26 5.6
2017-Jan-18 08:08 045 17 gusting 27 5.6
2017-Jan-18 08:04 040 14 gusting 27 5.6
2017-Jan-18 07:58 038 19 gusting 28 5.6
2017-Jan-18 07:53 036 16 gusting 27 5.6
2017-Jan-18 07:49 065 15 gusting 26 5.6
2017-Jan-18 07:43 034 13 gusting 26 5.6
2017-Jan-18 07:39 068 15 gusting 26 5.6
2017-Jan-18 07:33 037 14 gusting 29 5.6
2017-Jan-18 07:29 030 17 gusting 29 5.6
2017-Jan-18 07:23 038 12 gusting 23 5.6
2017-Jan-18 07:18 025 13 gusting 25 5.6
2017-Jan-18 07:14 034 13 gusting 25 5.6
2017-Jan-18 07:08 019 12 gusting 26 5.6
2017-Jan-18 07:04 050 11 gusting 26 5.6